New Kenley Weather Station. Now works across all platform including Mobile Phones. Bug reports please use the "Contact Us" link.

Kenley Weather Cam  Kenley Weather Cam


Rain radar more information rain snow radar



Select another period ( hide this area )

Units Period Custom range Directly to
Metric English Both
Daily Weekly Monthly Yearly
use both date-selectors for a custom range
previous Day
With this date

WeatherUnderground graphs for this period ( click here )


Daily Summary for Monday Jan 27 2020
Time Temp. ( °C ) Dew pt. ( °C ) Wind ( km/h ) from Gust ( km/h ) Pressure ( hPa ) Humid.( % ) Rainrate ( cm )
High9,4 6,8 0,0 ( 0/0 ) 37,0 1007,3 84 3,60
Average8,2 5,4 0,0 Calm #133/133 17,3 1001,2 83 3,00
Low6,7 4,0 -   0,0 993,5 81 -
Daily Tabular details for Monday Jan 27 2020
Time Temp. ( °C ) Dew pt. ( °C ) Wind ( km/h ) from Gust ( km/h ) Pressure ( hPa ) Humid.( % ) Rainrate ( cm )
00:01 9,3 6,4   Calm 24,1 1007,3 82 -
00:11 9,3 6,4   Calm 17,7 1006,3 82 -
00:22 9,3 6,4   Calm 17,7 1006,3 82 -
00:32 9,3 6,4   Calm 19,3 1006,3 82 -
00:42 9,2 6,3   Calm 19,3 1006,3 82 -
00:53 9,1 6,2   Calm 12,9 1006,3 82 -
01:03 9,2 6,3   Calm 19,3 1006,3 82 0,30
01:14 9,2 6,3   Calm 19,3 1006,3 82 0,30
01:24 9,1 6,2   Calm 17,7 1006,3 82 0,30
01:34 9,1 6,2   Calm 20,9 1006,3 82 0,30
01:45 9,0 6,1   Calm   1006,3 82 0,30
01:55 9,1 6,2   Calm 14,5 1006,3 82 -
02:05 9,0 6,1   Calm 12,9 1006,3 82 -
02:16 8,9 6,0   Calm 14,5 1006,3 82 -
02:26 8,8 5,9   Calm 17,7 1006,3 82 -
02:37 8,7 5,8   Calm 24,1 1006,3 82 -
02:47 8,7 5,8   Calm 24,1 1006,3 82 -
02:57 8,7 5,8   Calm 19,3 1006,3 82 -
03:07 8,7 5,8   Calm 37,0 1006,3 82 -
03:18 8,7 5,8   Calm 19,3 1006,3 82 -
03:28 8,6 5,7   Calm 14,5 1005,3 82 -
03:38 8,6 5,7   Calm 19,3 1005,3 82 -
03:49 8,5 5,6   Calm 19,3 1005,3 82 -
03:59 8,5 5,6   Calm 24,1 1005,3 82 -
04:10 8,5 5,6   Calm 11,3 1005,3 82 -
04:20 8,5 5,6   Calm 14,5 1005,3 82 -
04:30 8,3 5,4   Calm   1005,3 82 -
04:40 8,3 5,4   Calm 17,7 1005,3 82 -
04:50 8,4 5,5   Calm 14,5 1005,3 82 -
05:01 8,5 5,6   Calm 27,4 1005,3 82 -
05:11 8,5 5,6   Calm 27,4 1005,3 82 -
05:21 8,5 5,6   Calm 20,9 1004,3 82 -
05:32 8,6 5,7   Calm 19,3 1004,3 82 -
05:42 8,6 5,7   Calm 19,3 1004,3 82 -
05:53 8,6 5,7   Calm 17,7 1005,3 82 -
06:03 8,6 5,7   Calm 19,3 1005,3 82 -
06:13 8,6 5,7   Calm 19,3 1005,3 82 -
06:24 8,7 5,8   Calm 19,3 1005,3 82 -
06:34 8,7 5,8   Calm 14,5 1005,3 82 -
06:44 8,6 5,7   Calm 25,7 1005,3 82 -
06:55 8,6 5,7   Calm 25,7 1004,3 82 -
07:05 8,6 5,7   Calm 30,6 1004,3 82 -
07:16 8,6 5,7   Calm 20,9 1004,3 82 -
07:26 8,4 5,5   Calm 19,3 1004,3 82 -
07:36 8,2 5,3   Calm 14,5 1004,3 82 -
07:47 8,1 5,2   Calm 19,3 1004,3 82 -
07:57 8,1 5,2   Calm 19,3 1004,3 82 -
08:07 8,1 5,0   Calm 19,3 1004,3 81 -
08:17 8,1 5,0   Calm 19,3 1004,3 81 -
08:27 8,2 5,1   Calm 37,0 1004,3 81 -
08:38 8,3 5,4   Calm 24,1 1004,3 82 -
08:48 8,3 5,4   Calm 24,1 1004,3 82 -
08:59 8,3 5,4   Calm 14,5 1004,3 82 -
09:09 8,4 5,5   Calm 25,7 1004,3 82 -
09:19 8,5 5,6   Calm 25,7 1004,3 82 -
09:30 8,5 5,6   Calm 14,5 1004,3 82 -
09:41 8,4 5,7   Calm 12,9 1003,3 83 -
09:52 8,4 5,7   Calm 19,3 1003,3 83 -
10:02 8,4 5,7   Calm 19,3 1003,3 83 -
10:12 8,4 5,7   Calm 19,3 1004,3 83 -
10:22 8,3 5,6   Calm 19,3 1004,3 83 -
10:33 8,2 5,5   Calm 19,3 1004,3 83 -
10:43 8,1 5,4   Calm 19,3 1003,3 83 -
10:54 8,2 5,5   Calm 30,6 1003,3 83 -
11:04 8,3 5,6   Calm 30,6 1003,3 83 -
11:14 8,5 5,8   Calm 14,5 1003,3 83 -
11:24 8,7 6,0   Calm 19,3 1003,3 83 -
11:35 9,0 6,3   Calm 19,3 1003,3 83 -
11:45 9,1 6,4   Calm 27,4 1002,3 83 -
11:56 9,2 6,5   Calm 14,5 1002,3 83 -
12:06 9,2 6,5   Calm 11,3 1002,3 83 -
12:17 9,3 6,6   Calm 19,3 1002,3 83 -
12:27 9,3 6,6   Calm 19,3 1002,3 83 -
12:37 9,3 6,7   Calm 17,7 1002,3 84 -
12:48 9,3 6,7   Calm 11,3 1001,2 84 -
12:58 9,3 6,7   Calm 30,6 1001,2 84 -
13:08 9,3 6,7   Calm 30,6 1001,2 84 -
13:19 9,4 6,8   Calm 14,5 1001,2 84 -
13:29 9,3 6,7   Calm 24,1 1000,2 84 -
13:40 9,3 6,7   Calm   1000,2 84 -
13:50 9,3 6,7   Calm 11,3 1000,2 84 -
14:01 9,3 6,7   Calm 14,5 1000,2 84 -
14:11 9,0 6,4   Calm 17,7 999,2 84 -
14:21 8,9 6,3   Calm 17,7 999,2 84 -
14:32 8,8 6,2   Calm 12,9 999,2 84 -
14:42 9,0 6,4   Calm 19,3 999,2 84 0,30
14:52 9,1 6,4   Calm 19,3 998,2 83 1,00
15:03 9,1 6,4   Calm 12,9 998,2 83 1,30
15:13 9,0 6,3   Calm 14,5 998,2 83 1,80
15:23 8,7 6,1   Calm 14,5 998,2 84 2,30
15:33 8,4 5,9   Calm 12,9 998,2 84 3,30
15:44 8,2 5,5   Calm 12,9 998,2 83 3,60
15:54 8,0 5,3   Calm 12,9 998,2 83 3,60
16:04 7,9 5,4   Calm   998,2 84 3,30
16:15 7,8 5,3   Calm   997,2 84 2,80
16:25 7,5 4,8   Calm 25,7 997,2 83 2,30
16:35 7,4 4,7   Calm   997,2 83 1,80
16:45 7,4 4,7   Calm   997,2 83 1,80
16:56 7,4 4,7   Calm   997,2 83 1,50
17:06 7,3 4,6   Calm   997,2 83 1,30
17:17 7,3 4,6   Calm   997,2 83 0,80
17:27 7,4 4,7   Calm   996,2 83 0,50
17:38 7,3 4,6   Calm   996,2 83 0,30
17:48 7,0 4,3   Calm 17,7 996,2 83 0,30
17:58 6,9 4,2   Calm   996,2 83 -
18:09 7,0 4,3   Calm 12,9 996,2 83 -
18:19 7,1 4,4   Calm 14,5 996,2 83 -
18:30 7,1 4,4   Calm 11,3 996,2 83 -
18:40 7,1 4,4   Calm 17,7 996,2 83 -
18:51 7,1 4,4   Calm 12,9 996,2 83 -
19:02 7,1 4,4   Calm 14,5 996,2 83 -
19:12 7,0 4,3   Calm 19,3 995,1 83 -
19:23 6,9 4,2   Calm 19,3 995,1 83 -
19:33 6,8 4,1   Calm 19,3 995,1 83 -
19:43 6,8 4,1   Calm 12,9 995,1 83 -
19:54 6,8 4,1   Calm 19,3 995,1 83 -
20:04 6,8 4,1   Calm 19,3 995,1 83 -
20:14 6,8 4,1   Calm 19,3 995,1 83 -
20:24 6,8 4,1   Calm 19,3 995,1 83 -
20:35 6,8 4,1   Calm 17,7 995,1 83 -
20:45 6,8 4,1   Calm 19,3 994,1 83 -
20:55 6,7 4,0   Calm 19,3 994,1 83 -
21:06 6,8 4,1   Calm 25,7 994,1 83 -
21:16 7,0 4,1   Calm 19,3 994,1 82 -
21:26 7,1 4,2   Calm 19,3 994,1 82 -
21:37 7,1 4,2   Calm 25,7 994,1 82 -
21:47 7,2 4,3   Calm 17,7 994,1 82 -
21:57 7,2 4,3   Calm 19,3 994,1 82 -
22:07 7,2 4,3   Calm 20,9 994,1 82 -
22:18 7,0 4,1   Calm 20,9 994,1 82 -
22:28 6,8 4,1   Calm 17,7 993,5 83 -
22:38 6,8 4,1   Calm 17,7 993,5 83 -
22:48 6,7 4,0   Calm 17,7 993,5 83 -
Daily Summary for Monday Jan 27 2020
Time Temp. ( °C ) Dew pt. ( °C ) Wind ( km/h ) from Gust ( km/h ) Pressure ( hPa ) Humid.( % ) Rainrate ( cm )
High9,4 6,8 0,0 ( 0/0 ) 37,0 1007,3 84 3,60
Average8,2 5,4 0,0 Calm #133/133 17,3 1001,2 83 3,00
Low6,7 4,0 -   0,0 993,5 81 -
Daily Tabular details for Monday Jan 27 2020
Time Temp. ( °C ) Dew pt. ( °C ) Wind ( km/h ) from Gust ( km/h ) Pressure ( hPa ) Humid.( % ) Rainrate ( cm )
00:01 9,3 6,4   Calm 24,1 1007,3 82 -
00:11 9,3 6,4   Calm 17,7 1006,3 82 -
00:22 9,3 6,4   Calm 17,7 1006,3 82 -
00:32 9,3 6,4   Calm 19,3 1006,3 82 -
00:42 9,2 6,3   Calm 19,3 1006,3 82 -
00:53 9,1 6,2   Calm 12,9 1006,3 82 -
01:03 9,2 6,3   Calm 19,3 1006,3 82 0,30
01:14 9,2 6,3   Calm 19,3 1006,3 82 0,30
01:24 9,1 6,2   Calm 17,7 1006,3 82 0,30
01:34 9,1 6,2   Calm 20,9 1006,3 82 0,30
01:45 9,0 6,1   Calm   1006,3 82 0,30
01:55 9,1 6,2   Calm 14,5 1006,3 82 -
02:05 9,0 6,1   Calm 12,9 1006,3 82 -
02:16 8,9 6,0   Calm 14,5 1006,3 82 -
02:26 8,8 5,9   Calm 17,7 1006,3 82 -
02:37 8,7 5,8   Calm 24,1 1006,3 82 -
02:47 8,7 5,8   Calm 24,1 1006,3 82 -
02:57 8,7 5,8   Calm 19,3 1006,3 82 -
03:07 8,7 5,8   Calm 37,0 1006,3 82 -
03:18 8,7 5,8   Calm 19,3 1006,3 82 -
03:28 8,6 5,7   Calm 14,5 1005,3 82 -
03:38 8,6 5,7   Calm 19,3 1005,3 82 -
03:49 8,5 5,6   Calm 19,3 1005,3 82 -
03:59 8,5 5,6   Calm 24,1 1005,3 82 -
04:10 8,5 5,6   Calm 11,3 1005,3 82 -
04:20 8,5 5,6   Calm 14,5 1005,3 82 -
04:30 8,3 5,4   Calm   1005,3 82 -
04:40 8,3 5,4   Calm 17,7 1005,3 82 -
04:50 8,4 5,5   Calm 14,5 1005,3 82 -
05:01 8,5 5,6   Calm 27,4 1005,3 82 -
05:11 8,5 5,6   Calm 27,4 1005,3 82 -
05:21 8,5 5,6   Calm 20,9 1004,3 82 -
05:32 8,6 5,7   Calm 19,3 1004,3 82 -
05:42 8,6 5,7   Calm 19,3 1004,3 82 -
05:53 8,6 5,7   Calm 17,7 1005,3 82 -
06:03 8,6 5,7   Calm 19,3 1005,3 82 -
06:13 8,6 5,7   Calm 19,3 1005,3 82 -
06:24 8,7 5,8   Calm 19,3 1005,3 82 -
06:34 8,7 5,8   Calm 14,5 1005,3 82 -
06:44 8,6 5,7   Calm 25,7 1005,3 82 -
06:55 8,6 5,7   Calm 25,7 1004,3 82 -
07:05 8,6 5,7   Calm 30,6 1004,3 82 -
07:16 8,6 5,7   Calm 20,9 1004,3 82 -
07:26 8,4 5,5   Calm 19,3 1004,3 82 -
07:36 8,2 5,3   Calm 14,5 1004,3 82 -
07:47 8,1 5,2   Calm 19,3 1004,3 82 -
07:57 8,1 5,2   Calm 19,3 1004,3 82 -
08:07 8,1 5,0   Calm 19,3 1004,3 81 -
08:17 8,1 5,0   Calm 19,3 1004,3 81 -
08:27 8,2 5,1   Calm 37,0 1004,3 81 -
08:38 8,3 5,4   Calm 24,1 1004,3 82 -
08:48 8,3 5,4   Calm 24,1 1004,3 82 -
08:59 8,3 5,4   Calm 14,5 1004,3 82 -
09:09 8,4 5,5   Calm 25,7 1004,3 82 -
09:19 8,5 5,6   Calm 25,7 1004,3 82 -
09:30 8,5 5,6   Calm 14,5 1004,3 82 -
09:41 8,4 5,7   Calm 12,9 1003,3 83 -
09:52 8,4 5,7   Calm 19,3 1003,3 83 -
10:02 8,4 5,7   Calm 19,3 1003,3 83 -
10:12 8,4 5,7   Calm 19,3 1004,3 83 -
10:22 8,3 5,6   Calm 19,3 1004,3 83 -
10:33 8,2 5,5   Calm 19,3 1004,3 83 -
10:43 8,1 5,4   Calm 19,3 1003,3 83 -
10:54 8,2 5,5   Calm 30,6 1003,3 83 -
11:04 8,3 5,6   Calm 30,6 1003,3 83 -
11:14 8,5 5,8   Calm 14,5 1003,3 83 -
11:24 8,7 6,0   Calm 19,3 1003,3 83 -
11:35 9,0 6,3   Calm 19,3 1003,3 83 -
11:45 9,1 6,4   Calm 27,4 1002,3 83 -
11:56 9,2 6,5   Calm 14,5 1002,3 83 -
12:06 9,2 6,5   Calm 11,3 1002,3 83 -
12:17 9,3 6,6   Calm 19,3 1002,3 83 -
12:27 9,3 6,6   Calm 19,3 1002,3 83 -
12:37 9,3 6,7   Calm 17,7 1002,3 84 -
12:48 9,3 6,7   Calm 11,3 1001,2 84 -
12:58 9,3 6,7   Calm 30,6 1001,2 84 -
13:08 9,3 6,7   Calm 30,6 1001,2 84 -
13:19 9,4 6,8   Calm 14,5 1001,2 84 -
13:29 9,3 6,7   Calm 24,1 1000,2 84 -
13:40 9,3 6,7   Calm   1000,2 84 -
13:50 9,3 6,7   Calm 11,3 1000,2 84 -
14:01 9,3 6,7   Calm 14,5 1000,2 84 -
14:11 9,0 6,4   Calm 17,7 999,2 84 -
14:21 8,9 6,3   Calm 17,7 999,2 84 -
14:32 8,8 6,2   Calm 12,9 999,2 84 -
14:42 9,0 6,4   Calm 19,3 999,2 84 0,30
14:52 9,1 6,4   Calm 19,3 998,2 83 1,00
15:03 9,1 6,4   Calm 12,9 998,2 83 1,30
15:13 9,0 6,3   Calm 14,5 998,2 83 1,80
15:23 8,7 6,1   Calm 14,5 998,2 84 2,30
15:33 8,4 5,9   Calm 12,9 998,2 84 3,30
15:44 8,2 5,5   Calm 12,9 998,2 83 3,60
15:54 8,0 5,3   Calm 12,9 998,2 83 3,60
16:04 7,9 5,4   Calm   998,2 84 3,30
16:15 7,8 5,3   Calm   997,2 84 2,80
16:25 7,5 4,8   Calm 25,7 997,2 83 2,30
16:35 7,4 4,7   Calm   997,2 83 1,80
16:45 7,4 4,7   Calm   997,2 83 1,80
16:56 7,4 4,7   Calm   997,2 83 1,50
17:06 7,3 4,6   Calm   997,2 83 1,30
17:17 7,3 4,6   Calm   997,2 83 0,80
17:27 7,4 4,7   Calm   996,2 83 0,50
17:38 7,3 4,6   Calm   996,2 83 0,30
17:48 7,0 4,3   Calm 17,7 996,2 83 0,30
17:58 6,9 4,2   Calm   996,2 83 -
18:09 7,0 4,3   Calm 12,9 996,2 83 -
18:19 7,1 4,4   Calm 14,5 996,2 83 -
18:30 7,1 4,4   Calm 11,3 996,2 83 -
18:40 7,1 4,4   Calm 17,7 996,2 83 -
18:51 7,1 4,4   Calm 12,9 996,2 83 -
19:02 7,1 4,4   Calm 14,5 996,2 83 -
19:12 7,0 4,3   Calm 19,3 995,1 83 -
19:23 6,9 4,2   Calm 19,3 995,1 83 -
19:33 6,8 4,1   Calm 19,3 995,1 83 -
19:43 6,8 4,1   Calm 12,9 995,1 83 -
19:54 6,8 4,1   Calm 19,3 995,1 83 -
20:04 6,8 4,1   Calm 19,3 995,1 83 -
20:14 6,8 4,1   Calm 19,3 995,1 83 -
20:24 6,8 4,1   Calm 19,3 995,1 83 -
20:35 6,8 4,1   Calm 17,7 995,1 83 -
20:45 6,8 4,1   Calm 19,3 994,1 83 -
20:55 6,7 4,0   Calm 19,3 994,1 83 -
21:06 6,8 4,1   Calm 25,7 994,1 83 -
21:16 7,0 4,1   Calm 19,3 994,1 82 -
21:26 7,1 4,2   Calm 19,3 994,1 82 -
21:37 7,1 4,2   Calm 25,7 994,1 82 -
21:47 7,2 4,3   Calm 17,7 994,1 82 -
21:57 7,2 4,3   Calm 19,3 994,1 82 -
22:07 7,2 4,3   Calm 20,9 994,1 82 -
22:18 7,0 4,1   Calm 20,9 994,1 82 -
22:28 6,8 4,1   Calm 17,7 993,5 83 -
22:38 6,8 4,1   Calm 17,7 993,5 83 -
22:48 6,7 4,0   Calm 17,7 993,5 83 -

Download your copy of this data-set  here

Our weather-data as stored at Weather Underground. Script developed by Jim McMurry. Adapted for the template by Leuven-Template.eu

You find our weather info also at:

Weather Underground

Equipment we use:

Weather-station
Oregon WMR928

Weather-server
ALIX_1D

Provider
Meteohub

Oregon WMR928

ALIX_1D

Meteohub